| time (UTC) | temp F | wind direction | speed MPH | gust MPH | rain 1hr in | rain 24hr in | rain mn in | humidity % | barometer mb |
| 20260505074527 | 43 | 318 | 6.0 | 15.0 | 0.00 | 0.07 | 0.00 | 81 | 1006.5 |
| 20260505073028 | 44 | 23 | 6.0 | 15.0 | 0.00 | 0.07 | 0.00 | 81 | 1006.5 |
| 20260505071517 | 45 | 355 | 8.0 | 15.0 | 0.00 | 0.07 | 0.00 | 80 | 1006.7 |
| 20260505070015 | 47 | 340 | 5.0 | 14.0 | 0.00 | 0.07 | 0.00 | 79 | 1006.4 |
| 20260505064509 | 48 | 360 | 4.0 | 8.0 | 0.00 | 0.07 | 0.00 | 80 | 1006.3 |
| 20260505063006 | 49 | 223 | 0.0 | 1.0 | 0.00 | 0.07 | 0.00 | 80 | 1005.7 |
| 20260505061504 | 49 | 223 | 1.0 | 4.0 | 0.00 | 0.07 | 0.00 | 80 | 1005.6 |
| 20260505060003 | 48 | 250 | 3.0 | 6.0 | 0.00 | 0.07 | 0.00 | 80 | 1005.5 |
| 20260505054600 | 48 | 237 | 2.0 | 5.0 | 0.00 | 0.07 | 0.07 | 79 | 1005.4 |
| 20260505053059 | 48 | 201 | 2.0 | 5.0 | 0.00 | 0.07 | 0.07 | 79 | 1005.1 |
| 20260505051559 | 48 | 186 | 2.0 | 4.0 | 0.00 | 0.07 | 0.07 | 79 | 1005.1 |
| 20260505041556 | 48 | 243 | 5.0 | 10.0 | 0.02 | 0.07 | 0.07 | 80 | 1005.1 |
| 20260505034554 | 49 | 234 | 7.0 | 11.0 | 0.03 | 0.07 | 0.07 | 80 | 1004.7 |
| 20260505033056 | 50 | 211 | 7.0 | 14.0 | 0.03 | 0.06 | 0.06 | 79 | 1004.7 |
| 20260505031558 | 50 | 244 | 6.0 | 11.0 | 0.02 | 0.05 | 0.05 | 78 | 1004.5 |
| 20260505030057 | 50 | 238 | 4.0 | 10.0 | 0.02 | 0.05 | 0.05 | 75 | 1004.3 |
| 20260505024551 | 51 | 253 | 5.0 | 8.0 | 0.01 | 0.04 | 0.04 | 71 | 1003.9 |
| 20260505023047 | 52 | 252 | 4.0 | 7.0 | 0.00 | 0.03 | 0.03 | 68 | 1003.8 |
| 20260505021543 | 53 | 264 | 1.0 | 4.0 | 0.00 | 0.03 | 0.03 | 66 | 1003.6 |
| 20260505020042 | 53 | 335 | 1.0 | 4.0 | 0.00 | 0.03 | 0.03 | 65 | 1003.5 |
| 20260505014559 | 53 | 284 | 2.0 | 9.0 | 0.00 | 0.03 | 0.03 | 64 | 1003.2 |
| 20260505013041 | 53 | 338 | 4.0 | 10.0 | 0.00 | 0.03 | 0.03 | 65 | 1002.9 |
| 20260505011547 | 54 | 313 | 5.0 | 15.0 | 0.00 | 0.03 | 0.03 | 63 | 1003.0 |
| 20260505010037 | 55 | 333 | 5.0 | 13.0 | 0.00 | 0.03 | 0.03 | 62 | 1003.0 |
| 20260505004537 | 57 | 315 | 6.0 | 13.0 | 0.00 | 0.03 | 0.03 | 57 | 1002.9 |
| 20260505003036 | 58 | 9 | 3.0 | 6.0 | 0.00 | 0.03 | 0.03 | 60 | 1002.5 |
| 20260505001542 | 58 | 40 | 1.0 | 5.0 | 0.00 | 0.03 | 0.03 | 62 | 1002.3 |
| 20260505000036 | 58 | 355 | 1.0 | 2.0 | 0.00 | 0.03 | 0.03 | 61 | 1002.2 |
| 20260504234535 | 57 | 336 | 2.0 | 6.0 | 0.00 | 0.03 | 0.03 | 61 | 1002.0 |
| 20260504233035 | 56 | 360 | 3.0 | 10.0 | 0.00 | 0.03 | 0.03 | 61 | 1002.1 |
| 20260504231534 | 57 | 33 | 6.0 | 11.0 | 0.00 | 0.03 | 0.03 | 58 | 1002.2 |
| 20260504230033 | 60 | 271 | 3.0 | 12.0 | 0.00 | 0.03 | 0.03 | 50 | 1002.0 |
| 20260504224537 | 61 | 250 | 3.0 | 6.0 | 0.00 | 0.03 | 0.03 | 49 | 1001.6 |
| 20260504223032 | 61 | 15 | 2.0 | 6.0 | 0.00 | 0.03 | 0.03 | 47 | 1001.1 |
| 20260504221531 | 60 | 331 | 3.0 | 8.0 | 0.01 | 0.03 | 0.03 | 51 | 1000.7 |
| 20260504220031 | 60 | 59 | 5.0 | 10.0 | 0.01 | 0.03 | 0.03 | 53 | 1000.1 |
| 20260504214530 | 59 | 34 | 6.0 | 11.0 | 0.02 | 0.03 | 0.03 | 55 | 1000.4 |
| 20260504213029 | 57 | 46 | 9.0 | 15.0 | 0.03 | 0.03 | 0.03 | 55 | 1001.1 |
| 20260504211528 | 58 | 291 | 8.0 | 20.0 | 0.02 | 0.02 | 0.02 | 50 | 1001.9 |
| 20260504210036 | 58 | 27 | 5.0 | 15.0 | 0.02 | 0.02 | 0.02 | 50 | 1001.8 |
| 20260504204537 | 62 | 298 | 6.0 | 28.0 | 0.00 | 0.00 | 0.00 | 46 | 1001.3 |
| 20260504203030 | 65 | 360 | 14.0 | 31.0 | 0.00 | 0.00 | 0.00 | 32 | 1000.1 |
| 20260504201525 | 68 | 355 | 15.0 | 24.0 | 0.00 | 0.00 | 0.00 | 28 | 999.6 |
| 20260504200025 | 71 | 337 | 9.0 | 17.0 | 0.00 | 0.00 | 0.00 | 24 | 999.8 |
| 20260504194524 | 73 | 343 | 7.0 | 15.0 | 0.00 | 0.00 | 0.00 | 27 | 999.6 |
| 20260504193024 | 75 | 319 | 8.0 | 18.0 | 0.00 | 0.00 | 0.00 | 25 | 999.5 |
| 20260504191519 | 73 | 280 | 4.0 | 9.0 | 0.00 | 0.00 | 0.00 | 25 | 999.5 |
| 20260504190017 | 73 | 260 | 3.0 | 13.0 | 0.00 | 0.00 | 0.00 | 25 | 999.6 |
| 20260504184515 | 72 | 282 | 5.0 | 12.0 | 0.00 | 0.00 | 0.00 | 26 | 999.7 |
| 20260504183011 | 71 | 294 | 3.0 | 14.0 | 0.00 | 0.00 | 0.00 | 28 | 1000.1 |
| 20260504181509 | 70 | 283 | 5.0 | 12.0 | 0.00 | 0.00 | 0.00 | 28 | 1000.2 |
| 20260504180007 | 70 | 272 | 4.0 | 10.0 | 0.00 | 0.00 | 0.00 | 29 | 1000.5 |
| 20260504174502 | 69 | 281 | 4.0 | 11.0 | 0.00 | 0.00 | 0.00 | 30 | 1000.8 |
| 20260504173109 | 67 | 234 | 2.0 | 13.0 | 0.00 | 0.00 | 0.00 | 31 | 1001.1 |
| 20260504171602 | 66 | 240 | 7.0 | 13.0 | 0.00 | 0.00 | 0.00 | 31 | 1001.2 |
| 20260504081540 | 49 | 252 | 1.0 | 3.0 | 0.00 | 0.00 | 0.00 | 46 | 1002.6 |